Location: Dead Woman Crossing
(43.5369°N, 106.3228°W)
Time: 16:05:04
(UTC+00:00)

O/OREOS (USA 219) - Pass Details

Date: 07 July 2022
Orbit: 621 x 646 km, 72.0° (Epoch: 22 May)

Event Time Altitude Azimuth Distance (km) Brightness Sun altitude
Rises 07:47:39 0° 315° (NW) 2,965 ? -23.3°
Reaches altitude 10° 07:51:15 10° 286° (WNW) 2,049 ? -23.2°
Enters shadow 07:52:23 12° 272° (W) 1,919 ? -23.2°
